When you browse on this site, cookies collect data to enhance your experience and personalize the content and advertising you see.
Visit our Privacy Policy to learn more. By continuing to use the site, you agree to this use of cookies and data.
  • In Hungary
  • List of Countries
  • For 7 days
  • Water Temperature
  • Satellite Maps
  • Weather Map
  • News
  • Weather Widgets
  • user-avatar
    Login

    Hourly Weather Anaheim

    Today, 27 June, Thursday

    Time Temperature Precipitation Wind Pressure Humidity
    00:00 +20°C° 0 mm 1 mps 756 mmHg 80%
    01:00 +20°C° 0 mm 1 mps 756 mmHg 80%
    02:00 +20°C° 0 mm 1 mps 756 mmHg 81%
    03:00 +20°C° 0 mm 1 mps 756 mmHg 81%
    04:00 +20°C° 0 mm 1 mps 756 mmHg 81%
    05:00 +20°C° 0 mm 1 mps 757 mmHg 78%
    06:00 +21°C° 0 mm 1 mps 757 mmHg 76%
    07:00 +21°C° 0 mm 1 mps 757 mmHg 73%
    08:00 +23°C° 0 mm 1 mps 757 mmHg 67%
    09:00 +24°C° 0 mm 2 mps 757 mmHg 60%
    10:00 +26°C° 0 mm 2 mps 757 mmHg 54%
    11:00 +26°C° 0 mm 3 mps 757 mmHg 52%
    12:00 +27°C° 0 mm 3 mps 757 mmHg 49%
    13:00 +28°C° 0 mm 4 mps 757 mmHg 47%
    14:00 +28°C° 0 mm 4 mps 756 mmHg 47%
    15:00 +27°C° 0 mm 4 mps 756 mmHg 47%
    16:00 +27°C° 0 mm 3 mps 756 mmHg 46%
    17:00 +26°C° 0 mm 3 mps 756 mmHg 49%
    18:00 +25°C° 0 mm 3 mps 756 mmHg 53%
    19:00 +24°C° 0 mm 2 mps 756 mmHg 56%
    20:00 +24°C° 0 mm 2 mps 756 mmHg 59%
    21:00 +23°C° 0 mm 2 mps 756 mmHg 62%
    22:00 +21°C° 0 mm 2 mps 756 mmHg 66%
    23:00 +22°C° 0 mm 1 mps 756 mmHg 68%

    Tomorrow, 28 June, Friday

    Time Temperature Precipitation Wind Pressure Humidity
    00:00 +22°C° 0 mm 1 mps 756 mmHg 69%
    01:00 +21°C° 0 mm 1 mps 756 mmHg 71%
    02:00 +21°C° 0 mm 1 mps 756 mmHg 72%
    03:00 +21°C° 0 mm 1 mps 756 mmHg 73%
    04:00 +19°C° 0 mm 0 mps 756 mmHg 74%
    05:00 +19°C° 0 mm 0 mps 756 mmHg 70%
    06:00 +20°C° 0 mm 0 mps 756 mmHg 67%
    07:00 +21°C° 0 mm 0 mps 756 mmHg 63%
    08:00 +24°C° 0 mm 1 mps 756 mmHg 56%
    09:00 +26°C° 0 mm 2 mps 756 mmHg 49%
    10:00 +28°C° 0 mm 2 mps 756 mmHg 42%
    11:00 +28°C° 0 mm 3 mps 756 mmHg 39%
    12:00 +29°C° 0 mm 3 mps 756 mmHg 36%
    13:00 +30°C° 0 mm 3 mps 756 mmHg 32%
    14:00 +30°C° 0 mm 4 mps 756 mmHg 33%
    15:00 +29°C° 0 mm 4 mps 755 mmHg 34%
    16:00 +29°C° 0 mm 4 mps 755 mmHg 35%
    17:00 +28°C° 0 mm 4 mps 755 mmHg 38%
    18:00 +27°C° 0 mm 3 mps 756 mmHg 42%
    19:00 +25°C° 0 mm 3 mps 756 mmHg 45%
    20:00 +25°C° 0 mm 2 mps 756 mmHg 49%
    21:00 +24°C° 0 mm 2 mps 756 mmHg 53%
    22:00 +23°C° 0 mm 1 mps 756 mmHg 57%
    23:00 +23°C° 0 mm 1 mps 756 mmHg 58%

    Day after tomorrow, 29 June, Saturday

    Time Temperature Precipitation Wind Pressure Humidity
    00:00 +22°C° 0 mm 1 mps 756 mmHg 59%
    01:00 +22°C° 0 mm 1 mps 756 mmHg 60%
    02:00 +22°C° 0 mm 1 mps 756 mmHg 61%
    03:00 +22°C° 0 mm 1 mps 756 mmHg 62%
    04:00 +19°C° 0 mm 0 mps 756 mmHg 63%
    05:00 +20°C° 0 mm 0 mps 756 mmHg 59%
    06:00 +23°C° 0 mm 1 mps 757 mmHg 56%
    07:00 +24°C° 0 mm 1 mps 757 mmHg 52%
    08:00 +25°C° 0 mm 1 mps 757 mmHg 45%
    09:00 +27°C° 0 mm 1 mps 757 mmHg 38%
    10:00 +29°C° 0 mm 1 mps 757 mmHg 31%
    11:00 +30°C° 0 mm 2 mps 756 mmHg 28%
    12:00 +31°C° 0 mm 3 mps 756 mmHg 25%
    13:00 +33°C° 0 mm 4 mps 756 mmHg 22%
    14:00 +32°C° 0 mm 4 mps 756 mmHg 24%
    15:00 +32°C° 0 mm 4 mps 755 mmHg 25%
    16:00 +30°C° 0 mm 4 mps 755 mmHg 26%
    17:00 +29°C° 0 mm 4 mps 755 mmHg 30%
    18:00 +28°C° 0 mm 3 mps 756 mmHg 33%
    19:00 +26°C° 0 mm 3 mps 756 mmHg 36%
    20:00 +26°C° 0 mm 2 mps 756 mmHg 40%
    21:00 +25°C° 0 mm 2 mps 757 mmHg 45%
    22:00 +24°C° 0 mm 2 mps 757 mmHg 49%
    23:00 +24°C° 0 mm 2 mps 757 mmHg 52%

    30 June, Sunday

    Time Temperature Precipitation Wind Pressure Humidity
    00:00 +23°C° 0 mm 1 mps 757 mmHg 55%
    01:00 +23°C° 0 mm 1 mps 756 mmHg 58%
    02:00 +22°C° 0 mm 1 mps 756 mmHg 58%
    03:00 +22°C° 0 mm 1 mps 756 mmHg 59%
    04:00 +22°C° 0 mm 1 mps 756 mmHg 59%
    05:00 +21°C° 0 mm 0 mps 756 mmHg 57%
    06:00 +21°C° 0 mm 0 mps 757 mmHg 54%
    07:00 +22°C° 0 mm 0 mps 757 mmHg 52%
    08:00 +26°C° 0 mm 1 mps 757 mmHg 45%
    09:00 +27°C° 0 mm 1 mps 757 mmHg 38%
    10:00 +29°C° 0 mm 2 mps 757 mmHg 31%
    11:00 +30°C° 0 mm 3 mps 756 mmHg 29%
    12:00 +31°C° 0 mm 3 mps 756 mmHg 28%
    13:00 +32°C° 0 mm 4 mps 756 mmHg 26%
    14:00 +32°C° 0 mm 4 mps 756 mmHg 28%
    15:00 +30°C° 0 mm 4 mps 755 mmHg 29%
    16:00 +30°C° 0 mm 4 mps 755 mmHg 31%
    17:00 +29°C° 0 mm 4 mps 755 mmHg 34%
    18:00 +27°C° 0 mm 3 mps 755 mmHg 38%
    19:00 +26°C° 0 mm 3 mps 755 mmHg 42%
    20:00 +25°C° 0 mm 2 mps 756 mmHg 46%
    21:00 +25°C° 0 mm 2 mps 756 mmHg 50%
    22:00 +24°C° 0 mm 2 mps 757 mmHg 54%
    23:00 +23°C° 0 mm 2 mps 756 mmHg 57%

    1 July, Monday

    Time Temperature Precipitation Wind Pressure Humidity
    00:00 +23°C° 0 mm 1 mps 756 mmHg 59%
    01:00 +22°C° 0 mm 1 mps 756 mmHg 62%
    02:00 +22°C° 0 mm 1 mps 756 mmHg 62%
    03:00 +22°C° 0 mm 1 mps 756 mmHg 63%
    04:00 +21°C° 0 mm 1 mps 755 mmHg 64%
    05:00 +22°C° 0 mm 1 mps 756 mmHg 61%
    06:00 +23°C° 0 mm 1 mps 756 mmHg 58%
    07:00 +24°C° 0 mm 1 mps 756 mmHg 55%
    08:00 +25°C° 0 mm 1 mps 756 mmHg 49%
    09:00 +27°C° 0 mm 2 mps 756 mmHg 44%
    10:00 +28°C° 0 mm 2 mps 756 mmHg 38%
    11:00 +29°C° 0 mm 3 mps 755 mmHg 36%
    12:00 +30°C° 0 mm 3 mps 755 mmHg 34%
    13:00 +32°C° 0 mm 4 mps 755 mmHg 32%
    14:00 +30°C° 0 mm 4 mps 754 mmHg 32%
    15:00 +30°C° 0 mm 4 mps 754 mmHg 32%
    16:00 +30°C° 0 mm 4 mps 754 mmHg 32%
    17:00 +29°C° 0 mm 3 mps 754 mmHg 35%
    18:00 +27°C° 0 mm 3 mps 754 mmHg 39%
    19:00 +26°C° 0 mm 3 mps 754 mmHg 42%
    20:00 +26°C° 0 mm 2 mps 754 mmHg 46%
    21:00 +25°C° 0 mm 2 mps 754 mmHg 50%
    22:00 +24°C° 0 mm 2 mps 755 mmHg 54%
    23:00 +24°C° 0 mm 2 mps 755 mmHg 56%

    2 July, Tuesday

    Time Temperature Precipitation Wind Pressure Humidity
    00:00 +23°C° 0 mm 2 mps 754 mmHg 58%
    01:00 +23°C° 0 mm 2 mps 754 mmHg 60%
    02:00 +21°C° 0 mm 2 mps 754 mmHg 62%
    03:00 +21°C° 0 mm 2 mps 754 mmHg 64%
    04:00 +21°C° 0 mm 2 mps 754 mmHg 66%
    05:00 +21°C° 0 mm 2 mps 754 mmHg 64%
    06:00 +23°C° 0 mm 2 mps 754 mmHg 62%
    07:00 +24°C° 0 mm 2 mps 755 mmHg 60%
    08:00 +25°C° 0 mm 2 mps 755 mmHg 55%
    09:00 +26°C° 0 mm 2 mps 755 mmHg 49%
    10:00 +28°C° 0 mm 3 mps 755 mmHg 44%
    11:00 +28°C° 0 mm 3 mps 754 mmHg 43%
    12:00 +29°C° 0 mm 4 mps 754 mmHg 41%
    13:00 +30°C° 0 mm 4 mps 754 mmHg 39%
    14:00 +29°C° 0 mm 4 mps 753 mmHg 40%
    15:00 +29°C° 0 mm 4 mps 753 mmHg 42%
    16:00 +28°C° 0 mm 4 mps 753 mmHg 43%
    17:00 +27°C° 0 mm 3 mps 753 mmHg 46%
    18:00 +26°C° 0 mm 3 mps 753 mmHg 50%
    19:00 +25°C° 0 mm 3 mps 753 mmHg 53%
    20:00 +24°C° 0 mm 2 mps 753 mmHg 57%
    21:00 +24°C° 0 mm 2 mps 753 mmHg 60%
    22:00 +23°C° 0 mm 2 mps 754 mmHg 64%
    23:00 +23°C° 0 mm 2 mps 754 mmHg 66%
    Show more